Stations météo

réclame
Mon MeteoGroup
Floda, Suède (2476): Température de l'air & dewpoint: 11.02.2018 20:00:00 - 17.02.2018 20:00:00 (CET)Floda, Suède (2476): Vitesse du vent & gusts: 11.02.2018 20:00:00 - 17.02.2018 20:00:00 (CET)Floda, Suède (2476): Direction du vent: 11.02.2018 20:00:00 - 17.02.2018 20:00:00 (CET)Floda, Suède (2476): reduced air pressure: 11.02.2018 20:00:00 - 17.02.2018 20:00:00 (CET)Floda, Suède (2476): visibility: 11.02.2018 20:00:00 - 17.02.2018 20:00:00 (CET)Floda, Suède (2476): Quantités de précipitations: 11.02.2018 20:00:00 - 17.02.2018 20:00:00 (CET)
Date & Time tt [°C] td [°C] ff [km/h] ff [knt] fx [km/h] fx [knt] dd ppp [hPa] vv [km] rr [mm]
17.02.2018 20:00:00 -5,7 -6,1 0 0 5 3 N 1024,4 0,2 0,0
17.02.2018 19:00:00 -4,0 -5,0 0 0 11 6 N 1024,2 1,2 0,0
17.02.2018 18:00:00 -1,2 -2,9 4 2 12 6 NW 1024,1 14 0,0
17.02.2018 17:00:00 -0,3 -2,8 3 2 12 6 NNW 1023,9 25 0,0
17.02.2018 16:00:00 -0,2 -3,2 4 2 9 5 WNW 1023,7 25 0,0
17.02.2018 15:00:00 -0,8 -4,2 5 3 6 4 WNW 1023,6 27 0,0
17.02.2018 14:00:00 0,3 -3,6 4 2 6 3 W 1023,5 27 0,0
17.02.2018 13:00:00 0,7 -2,7 4 2 6 3 WSW 1023,4 13 0,0
17.02.2018 12:00:00 0,4 -2,0 4 2 6 3 W 1023,4 11 0,0
17.02.2018 11:00:00 -1,1 -2,2 0 0 8 4 N 1023,1 8 0,0
17.02.2018 10:00:00 -1,9 -2,5 6 3 8 4 WNW 1023,1 6 0,0
17.02.2018 09:00:00 -2,1 -2,7 4 2 7 4 WNW 1022,7 4,6 0,0
17.02.2018 08:00:00 -2,3 -2,7 4 2 7 4 WNW 1022,4 4,9 0,0
17.02.2018 07:00:00 -3,4 -3,8 2 1 6 3 NNW 1022,2 4,0 0,0
17.02.2018 06:00:00 -3,3 -3,6 0 0 5 3 N 1021,7 1,9 0,0
17.02.2018 05:00:00 -3,5 -3,8 0 0 6 4 N 1021,6 3,3 0,0
17.02.2018 04:00:00 -5,1 -5,4 0 0 6 4 N 1021,4 0,3 0,0
17.02.2018 03:00:00 -3,8 -4,1 0 0 7 4 N 1021,0 0,2 0,0
17.02.2018 02:00:00 -2,9 -3,6 2 1 11 6 NE 1020,6 1,8 0,0
17.02.2018 01:00:00 -0,6 -1,6 3 1 13 7 NE 1020,0 6 0,0
17.02.2018 00:00:00 -0,4 -1,5 6 3 14 8 NE 1019,6 6 0,0
16.02.2018 23:00:00 -0,1 -1,1 6 4 14 8 NE 1019,2 6 0,0
16.02.2018 22:00:00 -0,4 -1,4 8 5 14 7 NE 1018,5 6 0,0
16.02.2018 21:00:00 -0,3 -1,3 7 4 13 7 NE 1018,0 6 0,0
16.02.2018 20:00:00 -0,1 -1,1 5 3 13 7 ENE 1017,7 6 0,0
16.02.2018 19:00:00 0,3 -1,1 8 4 14 7 ENE 1017,3 8 0,0
16.02.2018 18:00:00 0,4 -0,9 6 3 14 8 E 1016,7 6 0,0
16.02.2018 17:00:00 0,2 -0,9 6 3 16 8 ENE 1016,2 7 0,0
16.02.2018 16:00:00 0,5 -0,9 6 3 17 9 E 1015,8 8 0,0
16.02.2018 15:00:00 0,9 -1,2 10 6 18 10 E 1015,8 9 0,0
16.02.2018 14:00:00 0,9 -0,6 8 4 19 10 E 1015,5 9 0,0
16.02.2018 13:00:00 0,8 -0,1 9 5 20 11 ESE 1015,3 4,4 0,3
16.02.2018 12:00:00 - - - - 20 11 - - - -
16.02.2018 11:00:00 0,5 -0,8 10 5 18 10 E 1015,3 4,5 0,0
16.02.2018 10:00:00 0,5 -1,4 10 5 18 10 ESE 1015,3 10 0,0
16.02.2018 09:00:00 0,3 -1,8 9 5 18 10 E 1014,9 11 0,0
16.02.2018 08:00:00 -0,2 -2,4 7 4 12 6 E 1014,9 14 0,0
16.02.2018 07:00:00 -0,2 -2,6 6 3 14 7 E 1015,0 15 0,0
16.02.2018 06:00:00 -0,1 -2,8 7 4 14 7 ENE 1014,9 15 0,0
16.02.2018 05:00:00 -0,1 -3,0 6 4 13 7 E 1015,1 17 0,0
16.02.2018 04:00:00 -0,2 -3,1 6 3 13 7 ESE 1015,5 18 0,0
16.02.2018 03:00:00 -0,1 -3,0 7 4 13 7 E 1015,9 21 0,0
16.02.2018 02:00:00 -0,2 -2,4 8 4 14 8 E 1016,4 18 0,0
16.02.2018 01:00:00 -0,3 -2,0 8 5 15 8 E 1016,9 17 0,0
16.02.2018 00:00:00 -0,3 -2,0 9 5 17 9 ESE 1017,5 17 0,0
15.02.2018 23:00:00 0,2 -2,2 10 5 21 12 ESE 1017,8 23 0,0
15.02.2018 22:00:00 0,5 -2,2 9 5 24 13 ESE 1017,9 18 0,0
15.02.2018 21:00:00 0,5 -2,5 12 6 24 13 SE 1018,2 26 0,0
15.02.2018 20:00:00 0,1 -2,8 11 6 20 11 ESE 1018,7 25 0,0
15.02.2018 19:00:00 -0,1 -2,8 10 5 22 12 ESE 1019,4 20 0,0
15.02.2018 18:00:00 -0,4 -2,9 9 5 22 12 ESE 1020,1 23 0,0
15.02.2018 17:00:00 0,0 -2,9 13 7 28 15 ESE 1020,4 26 0,0
15.02.2018 16:00:00 1,2 -3,1 13 7 30 16 SE 1020,7 25 0,0
15.02.2018 15:00:00 1,8 -2,5 16 9 30 16 SE 1021,0 22 0,0
15.02.2018 14:00:00 1,3 -1,6 13 7 21 12 ESE 1021,6 26 0,0
15.02.2018 13:00:00 0,4 -1,4 9 5 13 7 ESE 1022,4 23 0,0
15.02.2018 12:00:00 -0,2 -1,6 6 3 11 6 ESE 1023,0 15 0,0
15.02.2018 11:00:00 -1,6 -2,3 5 3 11 6 ESE 1023,5 15 0,0
15.02.2018 10:00:00 -3,3 -4,0 5 3 11 6 ESE 1023,8 13 0,1
15.02.2018 09:00:00 -5,0 -5,7 5 3 9 5 ESE 1024,0 11 0,0
15.02.2018 08:00:00 -5,4 -6,2 6 3 9 5 ESE 1024,2 12 0,0
15.02.2018 07:00:00 -5,2 -5,9 5 3 9 5 E 1024,3 15 0,0
15.02.2018 06:00:00 -6,3 -7,1 5 3 8 5 E 1024,5 14 0,0
15.02.2018 05:00:00 -6,6 -7,4 5 3 7 4 ESE 1024,6 12 0,0
15.02.2018 04:00:00 -5,8 -6,5 5 3 8 4 ESE 1024,5 9 0,0
15.02.2018 03:00:00 -9,1 -10,0 3 2 10 5 SE 1025,0 0,5 0,0
15.02.2018 02:00:00 -5,3 -5,8 6 3 10 5 ESE 1024,7 6 0,0
15.02.2018 01:00:00 -4,9 -5,3 7 4 9 5 ESE 1024,6 5 0,0
15.02.2018 00:00:00 -4,5 -4,9 5 3 8 4 ESE 1024,6 3,3 0,0
14.02.2018 23:00:00 -4,4 -4,8 6 3 9 5 ESE 1024,5 5 0,0
14.02.2018 22:00:00 -3,4 -4,1 5 3 10 6 ESE 1024,4 8 0,0
14.02.2018 21:00:00 -1,8 -3,1 5 3 10 6 SE 1024,5 22 0,0
14.02.2018 20:00:00 -0,2 -2,4 6 3 10 5 SE 1024,4 41 0,0
14.02.2018 19:00:00 -0,2 -2,7 6 3 9 5 ESE 1024,4 39 0,0
14.02.2018 18:00:00 -0,4 -1,8 5 3 9 5 ESE 1024,1 31 0,0
14.02.2018 17:00:00 0,5 -2,4 4 2 11 6 SE 1023,6 43 0,0
14.02.2018 16:00:00 1,2 -2,2 3 2 12 7 SSE 1023,2 43 0,0
14.02.2018 15:00:00 1,6 -3,5 6 4 19 11 S 1023,1 40 0,0
14.02.2018 14:00:00 2,3 -3,0 7 4 19 11 S 1022,8 42 0,0
14.02.2018 13:00:00 1,2 -0,7 3 2 8 5 SSE 1022,7 36 0,0
14.02.2018 12:00:00 0,0 -0,8 4 2 8 4 SSE 1022,6 27 0,0
14.02.2018 11:00:00 -0,5 -0,7 4 2 7 4 ESE 1022,2 18 0,0
14.02.2018 10:00:00 -1,2 -1,5 5 3 8 4 ESE 1021,8 14 0,0
14.02.2018 09:00:00 - - - - 7 4 - - - -
14.02.2018 08:00:00 -2,3 -2,6 0 0 5 3 N 1020,5 14 0,0
14.02.2018 07:00:00 -2,7 -3,1 2 1 8 4 E 1019,7 15 0,0
14.02.2018 06:00:00 -2,9 -3,3 3 2 8 4 ESE 1019,2 16 0,0
14.02.2018 05:00:00 -3,4 -3,8 2 1 6 3 ESE 1018,6 20 0,0
14.02.2018 04:00:00 -5,7 -6,4 0 0 5 3 N 1018,1 35 0,0
14.02.2018 03:00:00 -7,0 -7,7 0 0 5 3 N 1017,7 18 0,0
14.02.2018 02:00:00 -8,8 -9,9 0 0 5 3 N 1017,4 0,9 0,0
14.02.2018 01:00:00 -4,8 -5,3 2 1 8 4 E 1016,6 1,0 0,0
14.02.2018 00:00:00 -2,9 -3,3 4 2 8 4 SE 1016,1 10 0,0
13.02.2018 23:00:00 -3,2 -3,5 4 2 9 5 SSE 1015,7 8 0,0
13.02.2018 22:00:00 -4,2 -4,6 3 1 9 5 S 1015,1 2,3 0,0
13.02.2018 21:00:00 -3,7 -4,1 4 2 8 4 SSE 1014,5 4,3 0,0
13.02.2018 20:00:00 -3,5 -3,8 4 2 11 6 SE 1014,0 3,4 0,0
13.02.2018 19:00:00 -2,8 -3,3 6 4 12 7 SSW 1013,3 21 0,0
13.02.2018 18:00:00 -1,7 -2,5 5 3 19 10 SSW 1012,6 30 0,0
13.02.2018 17:00:00 -0,4 -1,7 11 6 19 10 SW 1011,7 49 0,0
13.02.2018 16:00:00 0,7 -0,2 13 7 20 11 SW 1010,9 43 0,0
13.02.2018 15:00:00 0,7 0,0 11 6 20 11 SW 1010,1 36 0,0
13.02.2018 14:00:00 1,2 0,8 8 5 21 11 WSW 1009,5 49 0,0
13.02.2018 13:00:00 0,8 0,5 10 6 21 11 SW 1009,2 50 0,0
13.02.2018 12:00:00 0,1 -0,2 13 7 23 12 WSW 1008,6 10 0,2
13.02.2018 11:00:00 0,0 -0,1 14 8 23 12 SW 1007,7 1,2 0,1
13.02.2018 10:00:00 -0,1 -0,2 14 7 23 12 SW 1006,9 7 0,0
13.02.2018 09:00:00 -0,1 -0,2 10 5 22 12 SSW 1006,1 4,8 0,1
13.02.2018 08:00:00 0,0 -0,1 12 6 24 13 SW 1005,1 1,9 0,3
13.02.2018 07:00:00 0,1 -0,2 14 8 32 17 SSW 1004,1 2,0 0,2
13.02.2018 06:00:00 0,5 0,1 15 8 32 17 SSW 1003,3 2,9 0,1
13.02.2018 05:00:00 0,7 -0,2 17 9 32 18 SSW 1002,5 16 0,0
13.02.2018 04:00:00 0,6 0,0 22 12 33 18 SW 1001,4 4,0 0,1
13.02.2018 03:00:00 0,7 -0,2 19 11 33 18 SSW 1000,5 4,4 0,0
13.02.2018 02:00:00 1,0 0,0 22 12 32 18 SW 999,5 8 -
13.02.2018 01:00:00 0,9 0,0 17 9 32 17 SSW 998,3 23 0,1
13.02.2018 00:00:00 0,7 0,1 17 9 29 15 SSW 997,2 4,4 0,2
12.02.2018 23:00:00 0,7 0,0 17 9 27 15 S 996,5 7 0,2
12.02.2018 22:00:00 0,8 -0,1 13 7 25 14 SSE 996,0 10 0,2
12.02.2018 21:00:00 0,8 -0,1 13 7 31 17 SSE 995,7 4,8 0,2
12.02.2018 20:00:00 1,1 0,1 16 9 32 17 SE 995,4 8 0,2
12.02.2018 19:00:00 1,3 -0,2 17 9 32 17 SE 995,3 7 0,1
12.02.2018 18:00:00 2,0 -0,6 18 10 35 19 SE 995,4 30 0,0
12.02.2018 17:00:00 2,0 -0,4 18 10 39 21 SE 995,5 30 0,0
12.02.2018 16:00:00 2,2 -0,2 16 9 39 21 SE 995,8 28 0,0
12.02.2018 15:00:00 2,2 -0,1 17 9 33 18 SE 995,9 22 0,0
12.02.2018 14:00:00 2,1 0,2 14 7 33 18 SE 996,1 25 0,0
12.02.2018 13:00:00 1,8 0,3 14 8 30 16 SE 996,3 16 0,1
12.02.2018 12:00:00 1,3 0,1 15 8 31 17 ESE 996,4 10 0,0
12.02.2018 11:00:00 1,9 0,0 15 8 31 17 SE 996,3 13 0,0
12.02.2018 10:00:00 1,8 0,2 14 8 29 16 SE 996,3 13 0,0
12.02.2018 09:00:00 1,7 0,4 15 8 24 13 ESE 996,4 11 0,0
12.02.2018 08:00:00 1,7 1,0 11 6 26 14 SE 996,5 6 0,0
12.02.2018 07:00:00 1,3 0,9 14 8 26 14 ESE 996,2 4,5 0,0
12.02.2018 06:00:00 1,0 0,6 12 6 28 15 ESE 996,6 3,0 0,0
12.02.2018 05:00:00 0,8 0,4 14 8 28 15 ESE 996,8 2,7 0,0
12.02.2018 04:00:00 0,6 0,2 13 7 28 15 ESE 997,4 3,5 0,0
12.02.2018 03:00:00 0,2 -0,1 12 7 28 15 ESE 997,6 3,1 0,6
12.02.2018 02:00:00 -0,2 -0,6 11 6 28 15 E 998,1 1,6 0,7
12.02.2018 01:00:00 -0,4 -1,2 14 8 27 15 E 998,6 2,5 0,3
12.02.2018 00:00:00 -1,1 -1,9 10 6 29 16 E 999,3 2,2 -
11.02.2018 23:00:00 -1,3 -2,4 14 8 35 19 E 1000,0 2,8 0,2
11.02.2018 22:00:00 -1,4 -3,1 16 9 37 20 E 1000,6 5 0,2
11.02.2018 21:00:00 -1,2 -3,7 17 9 37 20 E 1001,0 9 0,0
11.02.2018 20:00:00 -1,2 -3,7 14 8 31 17 E 1001,6 11 0,1

tt = Température de l'air
td = dewpoint
ff = Vitesse du vent
fx = gusts
dd = Direction du vent
ppp = reduced air pressure
vv = visibility
rr = Quantités de précipitations

stations d'obs. à proximité